{"data":{"norad_id":69307,"epoch":"2026-09-20T01:03:09.275040Z","epoch_age_seconds":68342,"freshness":"FRESH","line1":"1 69307U 26119M   26263.04385735  .00021881  00000+0  67834-3 0  9998","line2":"2 69307  97.2841 287.7878 0000537  99.8301 260.3003 15.33435395 18598","mean_motion":15.33435395,"eccentricity":5.37e-5,"inclination_deg":97.2841,"raan_deg":287.7878,"arg_perigee_deg":99.8301,"mean_anomaly_deg":260.3003,"bstar":0.00067834,"rev_number":1859,"period_min":93.906792858398,"perigee_km":465.20424518961,"apogee_km":465.93925950961,"semimajor_km":6843.7087523496,"source":"CELESTRAK","updated_at":"2026-09-20T09:00:44.156127Z"}}